This demonstration page uses our WeatherBlox Daily Observations layout. Learn more.

Left ArrowRight Arrow

Hourly Observations for July 28, 2021

Temp ( °F °C ) Dew Point ( °F °C ) Humidity (%) Winds ( mph kmh ) Pressure ( in mb ) Visibility ( mi km ) Precip ( " mm )
12:53 am 00:53 Clear 83 28.3 51 10.6 33 33 ESE 10 17 29.92 1013 10 16 0.00 0.00
1:53 am 01:53 Clear 83 28.3 50 10 32 32 SE 9 15 29.92 1013 10 16 0.00 0.00
2:53 am 02:53 Clear 80 26.7 49 9.4 34 34 SE 10 17 29.92 1013 10 16 0.00 0.00
3:53 am 03:53 Clear 76 24.4 49 9.4 39 39 SE 8 13 29.91 1013 10 16 0.00 0.00
4:53 am 04:53 Clear 75 23.9 49 9.4 40 40 E 7 11 29.92 1013 10 16 0.00 0.00
5:53 am 05:53 Clear 75 23.9 48 8.9 39 39 ESE 7 11 29.93 1013 10 16 0.00 0.00
6:53 am 06:53 Clear 76 24.4 48 8.9 37 37 SE 10 17 29.93 1014 10 16 0.00 0.00
7:53 am 07:53 Sunny 76 24.4 50 10 40 40 SE 14 22 29.95 1014 10 16 0.00 0.00
8:53 am 08:53 Sunny 77 25 53 11.7 43 43 SE 10 17 29.95 1014 10 16 0.00 0.00
9:53 am 09:53 Mostly Sunny 79 26.1 55 12.8 44 44 SSE 12 19 29.97 1015 10 16 0.00 0.00
10:53 am 10:53 Cloudy 80 26.7 58 14.4 47 47 ESE 21 33 30.03 1017 10 16 0.00 0.00
11:53 am 11:53 Cloudy with Rain 72 22.2 63 17.2 73 73 ESE 20 31 30.05 1018 4 6 0.01 0.25
12:53 pm 12:53 Cloudy with Light Rain 70 21.1 65 18.3 84 84 E 18 30 30.08 1019 10 16 0.02 0.51
1:53 pm 13:53 Cloudy with Light Rain 70 21.1 65 18.3 84 84 ESE 14 22 30.05 1018 9 14 0.03 0.76
2:53 pm 14:53 Cloudy 74 23.3 66 18.9 76 76 NNE 5 7 30.03 1017 10 16 0.02 0.51
3:53 pm 15:53 Mostly Sunny 81 27.2 65 18.3 58 58 NE 7 11 29.99 1016 10 16 0.00 0.00
4:53 pm 16:53 Sunny 86 30 61 16.1 43 43 E 8 13 29.94 1014 10 16 0.00 0.00
5:53 pm 17:53 Sunny 85 29.4 62 16.7 46 46 S 8 13 29.93 1013 10 16 0.00 0.00
6:53 pm 18:53 Sunny 86 30 61 16.1 43 43 SSE 10 17 29.93 1014 10 16 0.00 0.00
7:53 pm 19:53 Sunny 85 29.4 61 16.1 45 45 SSE 10 17 29.92 1013 10 16 0.00 0.00
8:53 pm 20:53 Clear 81 27.2 62 16.7 53 53 SE 18 30 29.93 1014 10 16 0.00 0.00
9:53 pm 21:53 Clear 77 25 61 16.1 58 58 SSE 9 15 29.94 1014 10 16 0.00 0.00
10:53 pm 22:53 Clear 74 23.3 62 16.7 67 67 SSE 5 7 29.97 1015 10 16 0.00 0.00
11:53 pm 23:53 Clear 73 22.8 63 17.2 71 71 Calm 29.99 1016 10 16 0.00 0.00

Powered by AerisWeather